Weather History for London-Corbin, KY

Change the Weather History Date:

Tuesday, September 17, 2013

  Actual Average Record
Temperature  
Mean Temperature 68 °F 68 °F  
Max Temperature 80 °F 79 °F 92 °F (1955)
Min Temperature 55 °F 57 °F 38 °F (2000)
Degree Days  
Heating Degree Days 0 1  
Month to date heating degree days 7 7  
Since 1 July heating degree days 7 8  
Cooling Degree Days 3 4  
Month to date cooling degree days 121 105  
Year to date cooling degree days 1013 1129  
Growing Degree Days 18 (Base 50)    
Moisture  
Dew Point 57 °F    
Average Humidity 72    
Maximum Humidity 93    
Minimum Humidity 51    
Precipitation  
Precipitation 0.00 in 0.12 in 4.32 in (2004)
Month to date precipitation 0.89 1.91  
Year to date precipitation 41.93 34.59  
Sea Level Pressure  
Sea Level Pressure 30.21 in    
Wind  
Wind Speed 3 mph (NE)    
Max Wind Speed 8 mph    
Max Gust Speed 12 mph    
Visibility 8 miles    
Events      
T = Trace of Precipitation, MM = Missing Value Source: NWS Daily Summary

Daily Weather History Graph

Daily Weather History Graph

Search for Another Location

Airport:

Trip Planner

Search our weather history database for the weather conditions in past years. The results will help you decide how hot, cold, wet, or windy it might be!

Date:

Astronomy

Sep. 17, 2013 Rise Set
Actual Time 7:20 AM EDT 7:40 PM EDT
Civil Twilight 6:54 AM EDT 8:06 PM EDT
Nautical Twilight 6:23 AM EDT 8:36 PM EDT
Astronomical Twilight 5:52 AM EDT 9:07 PM EDT
Moon 6:25 PM EDT (9/17) 5:15 AM EDT (9/17)
Length of Visible Light 13h 12m
Length of Day
12h 20m
Waxing Gibbous, 96% of the Moon is Illuminated
Sep 17
Waxing Gibbous
Sep 19
Full
Sep 26
Last Quarter
Oct 4
New
Oct 11
First Quarter

Hourly Weather History & Observations

Time (EDT) Temp. Heat Index Dew Point Humidity Pressure Visibility Wind Dir Wind Speed Gust Speed Precip Events Conditions
12:53 AM 62.1 °F - 57.0 °F 84% 30.23 in 10.0 mi NE 4.6 mph - N/A   Clear
1:53 AM 61.0 °F - 57.0 °F 87% 30.22 in 10.0 mi NE 3.5 mph - N/A   Clear
2:53 AM 60.1 °F - 55.9 °F 86% 30.22 in 10.0 mi NE 3.5 mph - N/A   Clear
3:53 AM 57.9 °F - 55.0 °F 90% 30.22 in 6.0 mi NNE 4.6 mph - N/A   Clear
4:53 AM 57.9 °F - 55.0 °F 90% 30.22 in 7.0 mi North 4.6 mph - N/A   Clear
5:53 AM 57.0 °F - 55.0 °F 93% 30.22 in 7.0 mi Calm Calm - N/A   Clear
6:53 AM 57.0 °F - 54.0 °F 89% 30.23 in 5.0 mi Calm Calm - 0.01 in   Clear
7:07 AM 55.4 °F - 53.6 °F 94% 30.25 in 2.0 mi Calm Calm - N/A   Clear
7:20 AM 55.4 °F - 53.6 °F 94% 30.26 in 1.0 mi Calm Calm - N/A   Clear
7:30 AM 55.4 °F - 53.6 °F 94% 30.26 in 3.0 mi NNE 3.5 mph - N/A   Clear
7:53 AM 57.9 °F - 55.0 °F 90% 30.24 in 5.0 mi NNE 5.8 mph - N/A   Mostly Cloudy
8:53 AM 60.1 °F - 55.9 °F 86% 30.24 in 7.0 mi NNE 5.8 mph - N/A   Clear
9:02 AM 60.8 °F - 55.4 °F 82% 30.26 in 7.0 mi NNE 5.8 mph - N/A   Scattered Clouds
9:24 AM 62.6 °F - 57.2 °F 82% 30.26 in 10.0 mi NE 6.9 mph - N/A   Mostly Cloudy
9:34 AM 60.8 °F - 55.4 °F 82% 30.27 in 10.0 mi NE 5.8 mph - N/A   Scattered Clouds
9:53 AM 63.0 °F - 55.9 °F 78% 30.25 in 10.0 mi Variable 4.6 mph - N/A   Partly Cloudy
10:53 AM 66.0 °F - 55.9 °F 70% 30.25 in 10.0 mi NE 4.6 mph - N/A   Clear
11:53 AM 70.0 °F - 57.9 °F 65% 30.25 in 10.0 mi NE 5.8 mph - N/A   Clear
12:53 PM 73.0 °F - 57.0 °F 57% 30.22 in 10.0 mi Calm Calm - N/A   Clear
1:53 PM 75.9 °F - 57.9 °F 54% 30.20 in 10.0 mi East 4.6 mph - N/A   Clear
2:53 PM 77.0 °F - 59.0 °F 54% 30.18 in 10.0 mi Calm Calm - N/A   Mostly Cloudy
3:53 PM 78.1 °F - 60.1 °F 54% 30.16 in 10.0 mi NNE 3.5 mph - N/A   Mostly Cloudy
4:53 PM 80.1 °F 80.9 °F 60.1 °F 50% 30.14 in 10.0 mi Variable 5.8 mph - N/A   Mostly Cloudy
5:53 PM 79.0 °F - 60.1 °F 52% 30.14 in 10.0 mi Calm Calm - N/A   Mostly Cloudy
6:53 PM 75.0 °F - 63.0 °F 66% 30.14 in 10.0 mi Calm Calm - N/A   Scattered Clouds
7:53 PM 72.0 °F - 62.1 °F 71% 30.14 in 10.0 mi Calm Calm - N/A   Mostly Cloudy
8:53 PM 70.0 °F - 61.0 °F 73% 30.15 in 10.0 mi NE 3.5 mph - N/A   Mostly Cloudy
9:53 PM 69.1 °F - 61.0 °F 75% 30.15 in 10.0 mi Calm Calm - N/A   Partly Cloudy
10:53 PM 68.0 °F - 61.0 °F 78% 30.16 in 10.0 mi Calm Calm - N/A   Mostly Cloudy
11:53 PM 66.9 °F - 61.0 °F 81% 30.15 in 10.0 mi Calm Calm - N/A   Scattered Clouds